This is the latest recevied weather packets stored in our database for station/object N1UNH. If no packets are shown the sender has not sent any weather packets the latest 10 day(s).
| Time | Temp. | Humidity | Pressure | Rain* | Wind** | Luminosity | Snow |
|---|---|---|---|---|---|---|---|
| 1777460651 | 7.78° C | 66% | 1023.5 hPa | 0 mm | - | 45 W/m² | - |
| 1777460346 | 7.78° C | 65% | 1023.6 hPa | 0 mm | - | 43 W/m² | - |
| 1777460043 | 7.78° C | 65% | 1023.6 hPa | 0 mm | - | 37 W/m² | - |
| 1777459740 | 7.78° C | 65% | 1023.7 hPa | 0 mm | - | 29 W/m² | - |
| 1777459436 | 7.78° C | 65% | 1023.6 hPa | 0 mm | - | 24 W/m² | - |
| 1777459135 | 7.78° C | 65% | 1023.8 hPa | 0 mm | - | 21 W/m² | - |
| 1777458832 | 7.78° C | 65% | 1023.7 hPa | 0 mm | - | 20 W/m² | - |
| 1777458528 | 7.22° C | 65% | 1023.6 hPa | 0 mm | - | 16 W/m² | - |
| 1777458225 | 7.22° C | 64% | 1023.4 hPa | 0 mm | - | 15 W/m² | - |
| 1777457920 | 7.22° C | 64% | 1023.5 hPa | 0 mm | - | 12 W/m² | - |
| 1777457618 | 7.22° C | 65% | 1023.5 hPa | 0 mm | - | 10 W/m² | - |
| 1777457317 | 7.22° C | 64% | 1023.4 hPa | 0 mm | - | 9 W/m² | - |
| 1777457013 | 7.22° C | 63% | 1023.3 hPa | 0 mm | - | 7 W/m² | - |
| 1777456709 | 7.22° C | 64% | 1023.3 hPa | 0 mm | - | 4 W/m² | - |
| 1777456408 | 7.22° C | 63% | 1023.3 hPa | 0 mm | - | 3 W/m² | - |
| 1777456105 | 7.22° C | 63% | 1023.4 hPa | 0 mm | - | 2 W/m² | - |
| 1777455801 | 7.22° C | 63% | 1023.4 hPa | 0 mm | - | 1 W/m² | - |
| 1777455498 | 7.22° C | 63% | 1023.3 hPa | 0 mm | - | 1 W/m² | - |
| 1777455194 | 7.22° C | 63% | 1023.3 hPa | 0 mm | - | 0 W/m² | - |
| 1777454892 | 7.22° C | 63% | 1023 hPa | 0 mm | - | 0 W/m² | - |
| 1777454588 | 7.22° C | 63% | 1022.9 hPa | 0 mm | - | 0 W/m² | - |
| 1777454284 | 7.22° C | 63% | 1023 hPa | 0 mm | - | 0 W/m² | - |
| 1777453981 | 7.22° C | 62% | 1023.1 hPa | 0 mm | - | 0 W/m² | - |
| 1777453678 | 7.22° C | 61% | 1022.9 hPa | 0 mm | - | 0 W/m² | - |
| 1777453375 | 7.22° C | 62% | 1023 hPa | 0 mm | - | 0 W/m² | - |
* Rain latest hour (hover to see other rain measurements)
** Current wind speed in m/s (hover to see current wind gust speed)